Location: Caixon
(43.4106°N, 0.0273°E)
Time: 03:17:24
(UTC+00:00)

Cosmos 1340 - Pass Details

Date: 16 October 2021
Orbit: 497 x 503 km, 81.2° (Epoch: 30 November)

Event Time Altitude Azimuth Distance (km) Brightness Sun altitude
Exits shadow 04:49:58 - 199° (SSW) 2,116 5.6 -16.2°
Reaches altitude 10° 04:50:58 10° 201° (SSW) 1,708 5.1 -16.0°
Maximum altitude 04:54:40 59° 282° (WNW) 585 2.6 -15.4°
Drops below altitude 10° 04:58:25 10° 3° (N) 1,724 5.4 -14.7°
Sets 05:00:35 0° 7° (N) 2,614 6.4 -14.3°
